Weather History for KMVE - September, 2013

Change the Weather History Date:

Wednesday, September 4, 2013

  Actual Average Record
Temperature  
Mean Temperature 70 °F -  
Max Temperature 82 °F 78 °F 94 °F (1979)
Min Temperature 59 °F 52 °F 34 °F (1974)
Cooling Degree Days 6    
Growing Degree Days 20 (Base 50)    
Moisture  
Dew Point 66 °F    
Average Humidity 86    
Maximum Humidity 100    
Minimum Humidity 66    
Precipitation  
Precipitation 0.00 in - - ()
Sea Level Pressure  
Sea Level Pressure 30.09 in    
Wind  
Wind Speed 3 mph (ESE)    
Max Wind Speed 8 mph    
Max Gust Speed -    
Visibility 9 miles    
Events Fog    
Averages and records for this station are not official NWS values.
T = Trace of Precipitation, MM = Missing Value Source: NWS Daily Summary

Daily Weather History Graph

Daily Weather History Graph

Search for Another Location

Airport or City:

Trip Planner

Search our weather history database for the weather conditions in past years. The results will help you decide how hot, cold, wet, or windy it might be!

Date:

Astronomy

Sep. 04, 2013 Rise Set
Actual Time 6:48 AM CDT 7:53 PM CDT
Civil Twilight 6:18 AM CDT 8:23 PM CDT
Nautical Twilight 5:42 AM CDT 8:59 PM CDT
Astronomical Twilight 5:04 AM CDT 9:37 PM CDT
Moon 6:02 AM CDT (9/4) 7:12 PM CDT (9/4)
Length of Visible Light 14h 05m
Length of Day
13h 05m
Waning Crescent, 1% of the Moon is Illuminated
Sep 4
Waning Crescent
Sep 5
New
Sep 12
First Quarter
Sep 19
Full
Sep 26
Last Quarter

Hourly Weather History & Observations

Time (CDT) Temp. Heat Index Dew Point Humidity Pressure Visibility Wind Dir Wind Speed Gust Speed Precip Events Conditions
12:14 AM 66.2 °F - 64.4 °F 94% 30.02 in 10.0 mi SSW 4.6 mph - N/A   Clear
12:33 AM 66.2 °F - 64.4 °F 94% 30.03 in 10.0 mi SSW 5.8 mph - N/A   Clear
12:54 AM 66.2 °F - 64.4 °F 94% 30.03 in 10.0 mi SW 5.8 mph - N/A   Clear
1:14 AM 66.2 °F - 64.4 °F 94% 30.02 in 10.0 mi SW 5.8 mph - N/A   Clear
1:34 AM 66.2 °F - 64.4 °F 94% 30.03 in 10.0 mi SW 3.5 mph - N/A   Clear
1:54 AM 64.4 °F - 62.6 °F 94% 30.03 in 10.0 mi Calm Calm - N/A   Clear
2:14 AM 62.6 °F - 62.6 °F 100% 30.04 in 10.0 mi SW 3.5 mph - N/A   Clear
2:34 AM 64.4 °F - 64.4 °F 100% 30.04 in 10.0 mi Calm Calm - N/A   Clear
2:54 AM 62.6 °F - 62.6 °F 100% 30.04 in 10.0 mi Calm Calm - N/A   Clear
3:14 AM 64.4 °F - 64.4 °F 100% 30.04 in 10.0 mi Calm Calm - N/A   Clear
3:34 AM 62.6 °F - 62.6 °F 100% 30.04 in 10.0 mi Calm Calm - N/A   Clear
3:54 AM 62.6 °F - 62.6 °F 100% 30.04 in 10.0 mi Calm Calm - N/A   Clear
4:13 AM 62.6 °F - 62.6 °F 100% 30.05 in 10.0 mi Calm Calm - N/A   Clear
4:34 AM 60.8 °F - 60.8 °F 100% 30.05 in 5.0 mi Calm Calm - N/A   Clear
4:54 AM 60.8 °F - 60.8 °F 100% 30.05 in 7.0 mi Calm Calm - N/A   Clear
5:13 AM 60.8 °F - 60.8 °F 100% 30.06 in 7.0 mi Calm Calm - N/A   Clear
5:34 AM 60.8 °F - 60.8 °F 100% 30.06 in 10.0 mi Calm Calm - N/A   Clear
5:54 AM 60.8 °F - 60.8 °F 100% 30.06 in 1.2 mi Calm Calm - N/A   Mist
6:13 AM 60.8 °F - 60.8 °F 100% 30.07 in 1.2 mi Calm Calm - N/A   Mist
6:34 AM 60.8 °F - 60.8 °F 100% 30.08 in 5.0 mi Calm Calm - N/A   Clear
6:53 AM 60.8 °F - 60.8 °F 100% 30.08 in 4.0 mi Calm Calm - N/A   Clear
7:14 AM 59.0 °F - 59.0 °F 100% 30.09 in 5.0 mi NE 4.6 mph - N/A   Clear
7:33 AM 59.0 °F - 59.0 °F 100% 30.10 in 0.2 mi NE 3.5 mph - N/A Fog Fog
7:54 AM 60.8 °F - 60.8 °F 100% 30.10 in 0.2 mi Calm Calm - N/A Fog Fog
8:14 AM 60.8 °F - 60.8 °F 100% 30.11 in 0.2 mi Calm Calm - N/A Fog Fog
8:34 AM 62.6 °F - 62.6 °F 100% 30.11 in 0.2 mi Calm Calm - N/A Fog Fog
8:54 AM 64.4 °F - 64.4 °F 100% 30.11 in 5.0 mi Calm Calm - N/A   Scattered Clouds
9:14 AM 66.2 °F - 66.2 °F 100% 30.11 in 10.0 mi Calm Calm - N/A   Clear
9:34 AM 69.8 °F - 66.2 °F 88% 30.11 in 10.0 mi Calm Calm - N/A   Clear
9:54 AM 71.6 °F - 66.2 °F 83% 30.11 in 10.0 mi Calm Calm - N/A   Clear
10:13 AM 71.6 °F - 68.0 °F 88% 30.12 in 10.0 mi Calm Calm - N/A   Clear
10:34 AM 73.4 °F - 69.8 °F 88% 30.12 in 10.0 mi Calm Calm - N/A   Clear
10:54 AM 73.4 °F - 69.8 °F 88% 30.12 in 10.0 mi Calm Calm - N/A   Clear
11:14 AM 75.2 °F - 69.8 °F 83% 30.12 in 10.0 mi SSE 3.5 mph - N/A   Clear
11:34 AM 75.2 °F - 69.8 °F 83% 30.12 in 10.0 mi Calm Calm - N/A   Clear
11:53 AM 78.8 °F - 69.8 °F 74% 30.12 in 10.0 mi South 3.5 mph - N/A   Clear
12:14 PM 78.8 °F - 69.8 °F 74% 30.12 in 10.0 mi Calm Calm - N/A   Clear
12:34 PM 78.8 °F - 69.8 °F 74% 30.12 in 10.0 mi Calm Calm - N/A   Clear
12:53 PM 78.8 °F - 69.8 °F 74% 30.12 in 10.0 mi ENE 3.5 mph - N/A   Clear
1:14 PM 80.6 °F 83.9 °F 69.8 °F 70% 30.11 in 10.0 mi Calm Calm - N/A   Scattered Clouds
1:34 PM 80.6 °F 83.9 °F 69.8 °F 70% 30.11 in 10.0 mi Calm Calm - N/A   Clear
1:53 PM 80.6 °F 84.6 °F 71.6 °F 74% 30.11 in 10.0 mi East 5.8 mph - N/A   Clear
2:14 PM 82.4 °F 86.3 °F 69.8 °F 66% 30.11 in 10.0 mi East 4.6 mph - N/A   Clear
2:34 PM 82.4 °F 86.3 °F 69.8 °F 66% 30.11 in 10.0 mi Calm Calm - N/A   Clear
2:53 PM 82.4 °F 87.2 °F 71.6 °F 70% 30.11 in 10.0 mi ESE 5.8 mph - N/A   Scattered Clouds
3:14 PM 82.4 °F 86.3 °F 69.8 °F 66% 30.11 in 10.0 mi SE 5.8 mph - N/A   Scattered Clouds
3:34 PM 82.4 °F 86.3 °F 69.8 °F 66% 30.11 in 10.0 mi ENE 3.5 mph - N/A   Scattered Clouds
3:54 PM 82.4 °F 86.3 °F 69.8 °F 66% 30.10 in 10.0 mi ESE 3.5 mph - N/A   Scattered Clouds
4:14 PM 82.4 °F 86.3 °F 69.8 °F 66% 30.11 in 10.0 mi East 8.1 mph - N/A   Scattered Clouds
4:34 PM 82.4 °F 86.3 °F 69.8 °F 66% 30.11 in 10.0 mi East 8.1 mph - N/A   Clear
4:54 PM 82.4 °F 86.3 °F 69.8 °F 66% 30.10 in 10.0 mi East 8.1 mph - N/A   Clear
5:14 PM 82.4 °F 86.3 °F 69.8 °F 66% 30.10 in 10.0 mi East 5.8 mph - N/A   Clear
5:34 PM 82.4 °F 86.3 °F 69.8 °F 66% 30.09 in 10.0 mi ESE 5.8 mph - N/A   Clear
5:54 PM 80.6 °F 83.9 °F 69.8 °F 70% 30.10 in 10.0 mi ESE 4.6 mph - N/A   Clear
6:14 PM 80.6 °F 83.9 °F 69.8 °F 70% 30.09 in 10.0 mi ESE 4.6 mph - N/A   Clear
6:33 PM 80.6 °F 83.9 °F 69.8 °F 70% 30.09 in 10.0 mi ESE 4.6 mph - N/A   Clear
6:54 PM 78.8 °F - 69.8 °F 74% 30.09 in 10.0 mi ESE 3.5 mph - N/A   Clear
7:14 PM 78.8 °F - 69.8 °F 74% 30.09 in 10.0 mi Calm Calm - N/A   Clear
7:33 PM 77.0 °F - 69.8 °F 78% 30.10 in 10.0 mi Calm Calm - N/A   Clear
7:54 PM 75.2 °F - 69.8 °F 83% 30.10 in 10.0 mi ESE 3.5 mph - N/A   Clear
8:14 PM 73.4 °F - 69.8 °F 88% 30.10 in 10.0 mi East 3.5 mph - N/A   Clear
8:33 PM 73.4 °F - 69.8 °F 88% 30.11 in 10.0 mi Calm Calm - N/A   Clear
8:54 PM 73.4 °F - 68.0 °F 83% 30.11 in 10.0 mi East 4.6 mph - N/A   Clear
9:13 PM 71.6 °F - 68.0 °F 88% 30.11 in 10.0 mi East 5.8 mph - N/A   Clear
9:34 PM 71.6 °F - 68.0 °F 88% 30.12 in 10.0 mi East 6.9 mph - N/A   Clear
9:54 PM 69.8 °F - 66.2 °F 88% 30.13 in 10.0 mi ESE 4.6 mph - N/A   Clear
10:13 PM 69.8 °F - 66.2 °F 88% 30.13 in 10.0 mi ESE 4.6 mph - N/A   Clear
10:34 PM 69.8 °F - 66.2 °F 88% 30.14 in 10.0 mi East 5.8 mph - N/A   Clear
10:54 PM 69.8 °F - 66.2 °F 88% 30.14 in 10.0 mi Calm Calm - N/A   Clear
11:13 PM 69.8 °F - 66.2 °F 88% 30.15 in 10.0 mi East 5.8 mph - N/A   Clear
11:34 PM 68.0 °F - 66.2 °F 94% 30.15 in 10.0 mi SE 6.9 mph - N/A   Clear
11:54 PM 68.0 °F - 66.2 °F 94% 30.15 in 10.0 mi SE 6.9 mph - N/A   Clear